www.pogodaiklimat.ru

Погода и климат >> Архив погоды >> Россия >> Магаданская область >> Эвенск


ПОГОДА в Эвенске

  • Прогноз погоды в Эвенске
  • Монитор погоды в Эвенске
  • Климат города

АРХИВ ПОГОДЫ в Эвенске

Время (UTC), дата Ветер
(напр.,м/с)
 
Видим.   Явления Облачность Т
(С)
Тd
(С)
f
(%)
Тe
(С)
Тes
(С)
Комфортность P
(гПа)
Po
(гПа)
Тmin
(С)
Tmax
(С)
R
(мм)
R24
(мм)
S
(см)
21 18.04 С 2 50 км 4/0
[Ci fib]
-7.5 -13.7 61 -12 -9 1006.1 1004.5 -12.4 112
00 19.04 С 3 50 км 6/0
[Ac trans Ci fib]
-1.7 -7.7 64 -6 -1 1005.9 1004.4
03 19.04 СВ 1 50 км 10/6 600 м
[Sc Ac und]
+0.2 -5.2 67 -1 -0 1005.8 1004.3
06 19.04 В 3 50 км 8/3 600 м
[Cb calv Ci fib]
-1.2 -5.3 74 -6 -4 1006.0 1004.5
09 19.04 СВ 5 50 км 10/6 600 м
[Cb calv Ac As]
-2.6 -5.6 80 -9 -9 1006.7 1005.2 +0.4
12 19.04 С 4 50 км 10/5 600 м
[Cb calv Ac As]
-2.0 -4.3 84 -8 -8 1006.9 1005.4
15 19.04 С 4 50 км 10/6
[Cb calv Ac As]
-1.4 -4.1 82 -7 -7 1007.4 1005.9
18 19.04 СВ 5 20 км осадки на расстоянии {ливн. осадки} 10/8 600 м
[Cb calv Ac As]
-1.9 -4.5 82 -8 -8 1007.7 1006.2
21 19.04 СВ 5
{10}
50 км 8/6 600 м
[Sc Ac trans]
-1.1 -4.4 78 -7 -7 1008.3 1006.8 -3.7 0.0 112
00 20.04 СВ 6-12
{13}
50 км 8/4 600 м
[Cb calv Ac trans]
+0.4 -3.3 76 -6 -5 1008.4 1007.0
03 20.04 СВ 4
{13}
50 км 9/5 600 м
[Cb calv Ac trans Ci fib]
+0.7 -3.2 75 -4 -3 1008.9 1007.4
06 20.04 СВ 4
{11}
50 км 8/6 600 м
[Cb calv Ac trans]
+0.5 -3.1 77 -5 -4 1009.6 1008.1
09 20.04 СВ 4 20 км осадки на расстоянии 10/6 600 м
[Cb calv Ac und]
-0.2 -2.8 83 -6 -6 1010.4 1008.9 +1.0
12 20.04 С 3 4000 м слабый ливневой снег 10/10 600 м
[Cb cap]
-0.4 -2.4 86 -5 -5 1010.8 1009.3
15 20.04 СВ 5 4000 м слабый ливневой снег 10/10 600 м
[Cb cap]
-0.6 -1.8 92 -7 -7 1011.0 1009.5
18 20.04 С 3
{10}
4000 м слабый ливневой снег 10/10 600 м
[Cb cap]
-0.7 -2.5 88 -6 -6 1011.2 1009.7
21 20.04 СВ 7-11
{11}
10 км осадки на расстоянии {ливн. осадки} 10/6 600 м
[Cb calv Ac und]
-0.9 -3.8 81 -8 -8 1011.6 1010.1 -1.2 1 112
00 21.04 СВ 5
{12}
10 км осадки на расстоянии {ливн. осадки} 10/5 600 м
[Cb calv Ac As]
+0.5 -2.8 79 -5 -5 1011.9 1010.4
03 21.04 СВ 6
{11}
4000 м слабый ливневой снег 10/8 600 м
[Cb cap Ac As]
+1.0 -2.1 80 -5 -5 1012.1 1010.6
06 21.04 СВ 4
{11}
4000 м слабый ливневой снег 10/8 600 м
[Cb cap Ac As]
+0.3 -2.2 83 -5 -5 1012.5 1011.0
09 21.04 С 4
{11}
10 км осадки на расстоянии {ливн. осадки} 10/8 600 м
[Cb calv Ac As]
+0.3 -3.0 78 -5 -5 1013.6 1012.1 +1.1 0.0
12 21.04 С 5-10
{11}
10 км осадки на расстоянии {ливн. осадки} 10/6 600 м
[Cb calv Ac As]
+0.1 -3.2 78 -6 -6 1013.6 1012.2
15 21.04 С 5
{10}
4000 м слабый ливневой снег 10/10 600 м
[Cb cap]
-0.8 -3.7 81 -7 -7 1013.8 1012.3
18 21.04 СВ 5-10
{11}
10 км осадки на расстоянии {ливн. осадки} 10/8 600 м
[Cb calv Ac As]
-1.3 -4.9 76 -8 -8 1013.5 1012.0
21 21.04 С 6-10
{13}
10 км слабый ливневой снег 10/8 600 м
[Cb cap Ac As]
-1.6 -4.3 82 -9 -8 1013.8 1012.3 -2.3 0.0 112
00 22.04 СВ 9-13
{14}
4000 м слабый ливневой снег 10/8 600 м
[Cb cap Ac und]
-2.5 -4.8 84 -11 -11 1013.7 1012.2 -2.6
03 22.04 СВ 7-12
{14}
20 км осадки на расстоянии {ливн. осадки} 10/6 600 м
[Cb calv Ac und]
-2.6 -7.6 68 -10 -10 1013.9 1012.4
06 22.04 СВ 5-11
{12}
20 км осадки на расстоянии {ливн. осадки} 10/6 600 м
[Cb calv Ac und]
-2.6 -7.0 72 -9 -9 1013.6 1012.1
09 22.04 СВ 5-10
{13}
20 км осадки на расстоянии {ливн. осадки} 10/4 600 м
[Cb calv Ac und]
-3.0 -8.0 68 -9 -9 1014.2 1012.7 -1.6 0.0
12 22.04 С 5-10
{11}
50 км 6/0
[Ac trans]
-3.4 -8.4 68 -10 -10 1015.1 1013.6
15 22.04 С 5-10
{12}
50 км 8/0
[Ac As]
-3.4 -9.1 65 -10 -10 1015.2 1013.6
18 22.04 С 4
{12}
50 км 8/5 600 м
[Sc Ac trans]
-6.1 -10.0 74 -13 -13 1015.4 1013.8
21 22.04 СВ 5 50 км 9/9 600 м
[Sc]
-3.5 -8.2 70 -10 -10 1016.0 1014.5 -6.2 110
00 23.04 В 2 50 км 6/3 600 м
[Sc Ac trans Ci fib]
-1.7 -7.6 64 -5 -0 1015.3 1013.8
03 23.04 СВ 2 50 км 6/0
[Ci fib]
-0.5 -7.6 59 -4 +4 1013.9 1012.4
06 23.04 СВ 2 50 км 8/0
[Ac lent Ci fib]
-0.9 -7.9 59 -4 -2 1012.5 1011.0
09 23.04 С 3
{10}
50 км 9/0
[Ac lent Ci fib]
-1.6 -10.3 51 -6 -6 1012.2 1010.7 +0.2
12 23.04 штиль 0 50 км 9/0
[Ac lent Ci fib]
-4.5 -11.4 59 -5 -5 1011.9 1010.4
15 23.04 С 2 50 км 8/0
[Ac lent Ci fib]
-6.3 -12.2 63 -10 -10 1010.6 1009.1
18 23.04 С 2 50 км 3/0
[Ac trans]
-8.0 -13.1 67 -12 -12 1009.6 1008.0
21 23.04 штиль 0 50 км ясно -2.0 -11.4 49 -2 +3 1008.4 1006.9 -8.0 109
00 24.04 ЮВ 2 50 км ясно +0.3 -9.7 47 -3 +7 1006.8 1005.3
03 24.04 Ю 2 50 км ясно +2.0 -4.2 63 -1 +8 1004.9 1003.5
06 24.04 ЮВ 2 50 км 3/0
[Ci fib]
+0.7 -3.7 72 -3 +1 1003.7 1002.2
09 24.04 СВ 1 50 км 3/0
[Ci fib]
-2.0 -4.9 81 -4 -4 1003.4 1002.0 +2.8
12 24.04 С 2 50 км ясно -7.1 -8.7 88 -12 -12 1003.3 1001.8
15 24.04 С 2 50 км ясно -8.6 -11.7 78 -13 -13 1002.6 1001.1
18 24.04 С 2 50 км ясно -9.3 -13.6 71 -14 -14 1002.3 1000.7
21 24.04 С 3 4000 м дымка 10/10 180 м
[St]
-6.9 -9.3 83 -13 -13 1002.2 1000.7 -9.9 108
00 25.04 С 2 4000 м дымка 10/10 210 м
[St]
-3.0 -4.8 87 -7 -7 1001.8 1000.3
03 25.04 ЮВ 1 4000 м дымка 10/10 300 м
[St]
-0.6 -3.6 80 -3 -3 1001.0 999.5
06 25.04 Ю 2 4000 м дымка 10/10 300 м
[St]
-1.1 -4.1 80 -5 -5 999.9 998.4
09 25.04 Ю 4 4000 м дымка 10/8 480 м
[Cb calv Ac As]
-2.2 -4.4 85 -8 -8 1000.4 998.9 +0.1
12 25.04 Ю 5 4000 м слабый ливневой снег 10/10 600 м
[Cb cap]
-1.3 -2.1 94 -8 -8 1000.0 998.5
15 25.04 Ю 4
{10}
4000 м слабый ливневой снег 10/10 600 м
[Cb cap]
-1.5 -2.2 95 -7 -7 998.5 997.0
18 25.04 Ю 7-12
{14}
2000 м слабый ливневой снег 10/10 600 м
[Cb cap]
-1.9 -2.6 95 -10 -10 995.8 994.4

 

Местоположение метеостанции Эвенск (Магаданская область, Россия): широта 61.92 долгота 159.20 высота над уровнем моря 12 м.

В архиве по умолчанию представлена погода в Эвенске за последнюю неделю. Архивные данные за месяц целиком и за предыдущие месяцы, начиная с января 2011 года, Вы можете получить, выбрав интересующий диапазон дат из раскрывающегося списка и нажав кнопку "Ввод!".


*Определитесь, кто Вы:
робот инопланетянин человек

Внимание! Время в таблицах - всемирное. Для получения местного времени необходимо прибавить поправку, которая в Эвенске равна 11 ч.

Смотрите также архив погоды в соседних городах и на ближайших метеорологических станциях:

Погода в Лабазной (Магаданская область, Россия) (158 км)
Погода в Омсукчане (Магаданская область, Россия) (188 км)
Погода в Шелихова (Магаданская область, Россия) (225 км)
Погода в Чемурнауте (Камчатский край, Россия) (242 км)
Погода в Кегали (Магаданская область, Россия) (275 км)
Погода в Палане (Камчатский край, Россия) (318 км)
Погода в Балыгычане (Магаданская область, Россия) (340 км)
Погода в Верхне-Пенжино (Камчатский край, Россия) (359 км)
Погода в Среднекане (Магаданская область, Россия) (363 км)
Погода в Оссоре (Камчатский край, Россия) (364 км)

Пояснения к столбцам:

Ветер - указаны скорость ветра в м/с - средняя за 10 мин, порывы в срок и между сроками (в фигурных скобках) и направление, откуда дует ветер: С - северный, СВ - северо-восточный, В - восточный, ЮВ - юго-восточный, Ю - южный, ЮЗ - юго-западный, З - западный, СЗ - северо-западный.
Видимость - горизонтальная дальность видимости в метрах или километрах. При видимости от 1 до 10 км при отсутствии осадков обычно наблюдается дымка, при ухудшении видимости до 1 км и менее - туман. В сухую погоду видимость может ухудшаться дымом, пылью или мглою.
Явления - указаны атмосферные явления, наблюдавшиеся в срок или в последний час перед сроком; фигурными скобками обозначены явления, наблюдавшиеся между сроками (за 1-3 часа до срока); квадратными скобками обозначены град или гололедные отложения с указанием их диаметра в мм.
Облачность - указаны через наклонную черту общая и нижняя облачность в баллах и высота нижней границы облаков в метрах; квадратными скобками обозначены формы облаков: Ci - перистые, Cs - перисто-слоистые, Cc - перисто-кучевые, Ac - высококучевые, As - высокослоистые, Sc - слоисто-кучевые, Ns - слоисто-дождевые, Cu - кучевые, Cb - кучево-дождевые. Подробнее классификацию облаков см. в Атласе облаков (PDF).
T - Температура воздуха - температура, измеренная на высоте 2 м над землей.
Td - Температура точки росы - температура, при понижении до которой содержащийся в воздухе водяной пар достигнет насыщения.
f - Относительная влажность воздуха - влажноcть воздуха, измеренная на высоте 2 м над землей.
Te - Эффективная температура - температура, которую ощущает одетый по сезону человек в тени. Характеристика душности погоды. При расчете учитывается влияние влажности воздуха и скорости ветра на теплоощущения человека.
Tes - Эффективная температура на солнце - температура, которую ощущает человек, с поправкой на солнечный нагрев. Характеристика знойности погоды. Зависит от высоты солнца над горизонтом, облачности и скорости ветра. Ночью, в пасмурную погоду, а также при ветре 12 м/с и более поправка равна нулю.
P - Атмосферное давление - приведенное к уровню моря атмосферное давление.
Po - Атмосферное давление - измеренное на уровне метеостанции атмосферное давление.
Tmin - Минимальная температура - минимум температуры воздуха на высоте 2 м над землей.
Tmax - Максимальная температура - максимум температуры воздуха на высоте 2 м над землей.
R - Количество осадков - Количество выпавших осадков за период времени, мм. При наведении курсора мыши на число - период времени, за который выпало указанное количество осадков.
R24 - Количество осадков - Количество выпавших осадков за 24 часа, мм.
S - Снежный покров - Высота снежного покрова, см. При наведении курсора мыши на число - состояние снежного покрова и степень покрытия местности в баллах.